ORBCOMM-X 1 21576U 91050C 10245.74128741 .00000045 00000-0 28395-4 0 4043 2 21576 098.5232 199.6215 0004071 138.2456 221.9043 14.40028297 4244 ORBCOMM FM 1 1 23545U 95017A 10245.77527628 +.00000445 +00000-0 +10299-3 0 05956 2 23545 069.9730 172.2357 0010428 311.8281 048.1984 14.61605746818732 ORBCOMM FM 2 1 23546U 95017B 10246.37837546 .00000309 00000-0 75835-4 0 6539 2 23546 069.9757 173.0326 0012365 301.4204 058.5750 14.61487439818833 ORBCOMM FM 8 1 25112U 97084A 10245.80424897 .00000151 00000-0 10276-3 0 6109 2 25112 045.0162 071.8830 0009706 138.8139 221.3377 14.34439760663802 ORBCOMM FM 10 1 25113U 97084B 10245.83879055 +.00000106 +00000-0 +87120-4 0 03417 2 25113 045.0183 072.5556 0007283 109.3159 250.8497 14.34440019663801 ORBCOMM FM 11 1 25114U 97084C 10245.83075185 .00000166 00000-0 10809-3 0 2740 2 25114 045.0170 072.2153 0007741 115.2750 244.8886 14.34442770663801 ORBCOMM FM 12 1 25115U 97084D 10245.81291122 .00000046 00000-0 65770-4 0 2712 2 25115 045.0172 072.0392 0006511 113.9724 246.1792 14.34443596663805 ORBCOMM FM 9 1 25116U 97084E 10245.68261739 +.00000147 +00000-0 +10139-3 0 04362 2 25116 045.0180 073.0564 0006807 099.6234 260.5381 14.34439290663788 ORBCOMM FM 5 1 25117U 97084F 10245.92612884 -.00000236 +00000-0 -33367-4 0 03696 2 25117 045.0181 072.1713 0003548 125.7946 234.3239 14.34433751663817 ORBCOMM FM 6 1 25118U 97084G 10245.77822453 -.00000238 00000-0 -34114-4 0 2563 2 25118 045.0176 072.7390 0003008 136.5028 223.6044 14.34436704663794 ORBCOMM FM 7 1 25119U 97084H 10245.79567190 .00000193 00000-0 11749-3 0 5211 2 25119 045.0177 072.8604 0005163 115.2523 244.8862 14.34435923663798 ORBCOMM FM 3 1 25158U 98007B 10245.87949085 +.00000080 +00000-0 +87700-4 0 02668 2 25158 107.9635 291.0413 0053257 246.0590 113.4953 14.25616009652601 ORBCOMM FM 4 1 25159U 98007C 10245.81372829 +.00000032 +00000-0 +67675-4 0 02586 2 25159 107.9644 290.7108 0049170 247.7114 111.8809 14.25637122652621 ORBCOMM FM 17 1 25413U 98046A 10246.36773430 -.00000145 00000-0 -23834-5 0 3944 2 25413 044.9990 356.0698 0001336 103.8959 256.2038 14.27655197630021 ORBCOMM FM 18 1 25414U 98046B 10245.67412597 -.00000048 +00000-0 +36110-4 0 03527 2 25414 044.9977 358.3575 0002095 073.6874 286.4149 14.28061755629937 ORBCOMM FM 19 1 25415U 98046C 10245.75403055 +.00000188 +00000-0 +13044-3 0 03878 2 25415 044.9980 358.1968 0001365 081.7039 278.3959 14.28061591629946 ORBCOMM FM 20 1 25416U 98046D 10245.76405026 +.00000328 +00000-0 +18651-3 0 08319 2 25416 044.9991 358.3289 0001718 161.6354 198.4550 14.28054142629906 ORBCOMM FM 16 1 25417U 98046E 10245.63397975 +.00000413 +00000-0 +22018-3 0 04356 2 25417 045.0005 359.9543 0002886 114.8690 245.2452 14.28055170629921 ORBCOMM FM 15 1 25418U 98046F 10245.78316948 +.00000403 +00000-0 +21620-3 0 04856 2 25418 045.0007 359.4805 0003249 109.1934 250.9268 14.28060810629949 ORBCOMM FM 14 1 25419U 98046G 10245.65386853 +.00000117 +00000-0 +10204-3 0 04460 2 25419 045.0002 000.0180 0002130 136.9373 223.1650 14.28062966629922 ORBCOMM FM 13 1 25420U 98046H 10245.66382676 -.00000143 +00000-0 -16601-5 0 03337 2 25420 045.0007 000.3596 0002876 097.3204 262.7962 14.28063102629954 ORBCOMM FM 21 1 25475U 98053A 10245.56322682 -.00000008 +00000-0 +51228-4 0 03786 2 25475 045.0088 085.5287 0003188 347.7649 012.3115 14.29113779623092 ORBCOMM FM 22 1 25476U 98053B 10245.66808192 .00000130 00000-0 10538-3 0 558 2 25476 045.0093 085.4255 0002505 041.7337 318.3704 14.29119982623095 ORBCOMM FM 23 1 25477U 98053C 10245.86546028 +.00000248 +00000-0 +15133-3 0 03704 2 25477 045.0102 084.2279 0003243 029.7415 330.3613 14.29114344623295 ORBCOMM FM 24 1 25478U 98053D 10245.78421572 +.00000155 +00000-0 +11497-3 0 09489 2 25478 045.0104 084.8630 0002936 048.8969 311.2097 14.29114703623269 ORBCOMM FM 25 1 25479U 98053E 10245.81976361 -.00000166 00000-0 -10211-4 0 2419 2 25479 045.0103 084.0577 0004818 044.5643 315.5579 14.29112214623261 ORBCOMM FM 26 1 25480U 98053F 10245.71147897 +.00000021 +00000-0 +62458-4 0 03222 2 25480 045.0094 074.6754 0006946 055.5491 304.6029 14.29390241623358 ORBCOMM FM 27 1 25481U 98053G 10245.90136367 -.00000043 +00000-0 +37562-4 0 08536 2 25481 045.0091 083.3387 0002163 032.9774 327.1142 14.29107585623279 ORBCOMM FM 28 1 25482U 98053H 10245.70514621 +.00000198 +00000-0 +12940-3 0 09700 2 25482 045.0108 053.7738 0004526 057.0972 303.0296 14.30226967623634 ORBCOMM FM 30 1 25980U 99065A 10245.48130124 +.00000314 +00000-0 +17762-3 0 08991 2 25980 045.0335 251.4763 0005772 224.4845 135.5524 14.28991283560546 ORBCOMM FM 31 1 25981U 99065B 10245.46702553 +.00000388 +00000-0 +20661-3 0 09984 2 25981 045.0251 248.8976 0005433 232.4216 127.6124 14.29006999560534 ORBCOMM FM 32 1 25982U 99065C 10245.45455198 +.00000148 +00000-0 +11168-3 0 09317 2 25982 045.0224 247.3630 0007098 223.3446 136.6816 14.29383772560556 ORBCOMM FM 33 1 25983U 99065D 10245.91753273 -.00000136 +00000-0 +13334-5 0 09074 2 25983 045.0313 249.1131 0004106 237.3572 122.6879 14.28958705560595 ORBCOMM FM 36 1 25984U 99065E 10245.45371261 -.00000094 +00000-0 +17801-4 0 09342 2 25984 045.0400 253.1247 0001264 116.7413 243.3557 14.29006702560532 ORBCOMM FM 35 1 25985U 99065F 10245.43927618 -.00000070 +00000-0 +27019-4 0 09654 2 25985 045.0422 254.1166 0004340 236.3781 123.6661 14.28992989560539 ORBCOMM FM 34 1 25986U 99065G 10245.98464356 +.00000161 +00000-0 +11789-3 0 09106 2 25986 045.0411 251.0141 0004323 207.5183 152.5433 14.28990353560614 ORBCOMM FM 38 1 33060U 08031A 10246.26217027 .00000014 00000-0 35401-4 0 6960 2 33060 048.4447 163.7984 0006499 121.9790 238.1748 14.68865896118464 ORBCOMM FM 41 1 33061U 08031B 10245.94482447 -.00000033 +00000-0 +27410-4 0 07059 2 33061 048.4470 165.6641 0005546 109.8849 250.2667 14.68835485118426 ORBCOMM FM 29 1 33062U 08031C 10245.89328632 -.00000053 +00000-0 +24232-4 0 06835 2 33062 048.4436 167.3715 0007502 113.8789 246.2918 14.68496340118395 ORBCOMM FM 39 1 33063U 08031D 10245.85218521 -.00000021 +00000-0 +29737-4 0 07018 2 33063 048.4431 168.5243 0009416 107.2021 252.9896 14.68296762118375 ORBCOMM FM 37 1 33064U 08031E 10245.84710211 -.00000018 +00000-0 +30047-4 0 06764 2 33064 048.4443 167.0770 0007368 115.5484 244.6173 14.68574558118397 ORBCOMM FM 40 1 33065U 08031F 10245.85403041 -.00000030 +00000-0 +28201-4 0 06679 2 33065 048.4465 168.7672 0008431 115.5246 244.6515 14.68279316118371